Location: St. Louis
(38.6270°N, 90.1994°W)
Time: 14:17:53
(UTC-06:00)

deb Explorer IX - Pass Details

Date: 30 November 2021
Orbit: 544 x 1082 km, 38.8° (Epoch: 16 January)

Event Time Altitude Azimuth Distance (km) Brightness Sun altitude
Rises 12:25:44 0° 254° (WSW) 2,810 ? 29.0°
Reaches altitude 10° 12:28:05 10° 252° (WSW) 1,863 ? 28.9°
Maximum altitude 12:32:17 75° 168° (SSE) 568 ? 28.8°
Drops below altitude 10° 12:36:21 10° 83° (E) 1,805 ? 28.6°
Sets 12:38:36 0° 82° (E) 2,715 ? 28.5°
